RS-30
1 32953U 08025A 11020.61115638 .00000010 00000-0 00000 0 0 4032
2 32953 082.5001 254.4752 0019279 351.1083 008.9650 12.43010391120755
TACSAT-3
1 35001U 09028A 11019.92579522 .00005304 00000-0 11582-3 0 05012
2 35001 040.4567 349.7627 0022377 190.5673 169.4676 15.44487517094128
PHARMSAT
1 35002U 09028B 11020.27701721 .00004318 00000-0 94393-4 0 4511
2 35002 040.4704 345.1460 0024585 196.9317 163.0680 15.44724721 94200
HAWKSAT1
1 35003U 09028C 11020.90950759 .00013539 00000-0 22674-3 0 4921
2 35003 040.4613 327.0113 0024417 227.0119 132.8649 15.51194989 94466
CP6
1 35004U 09028D 11019.93995825 .00016257 00000-0 25138-3 0 05026
2 35004 040.4598 329.2561 0023801 226.0213 133.8626 15.53320987094344
AEROCUB3
1 35005U 09028E 11006.09222617 .14049365 73043-5 82692-3 0 6103
2 35005 040.4461 021.7975 0025578 084.1677 280.7191 16.39196088 92544
METEOR-M
1 35865U 09049A 11020.72323613 .00000176 00000-0 10000-3 0 281
2 35865 098.7289 077.6198 0003260 091.2889 268.8623 14.21834173 69631
RS-38
1 35869U 09049E 11020.81123114 .00000177 00000-0 10000-3 0 426
2 35869 098.7271 077.7479 0005430 094.1076 266.0682 14.21998412 69654
